Total_Precipitation_Accumulation
3.07 3.20 3.56 2.92 2.49 2.39 2.43 2.60 2.58 2.33 2.30 2.33 2.46 2.49 2.47 2.56 2.61 2.75 2.83 2.80 2.90 3.19 3.55 3.89 4.02 4.18 4.51 4.59 4.23 3.87 3.82 4.01 4.09 3.95 3.76 3.51 3.32 3.37 3.47 3.58 3.41 2.46 2.49
2.49 2.75 3.09 2.59 2.21 2.09 2.19 2.54 2.41 2.32 2.28 2.32 2.40 2.46 2.48 2.64 2.64 2.74 2.76 2.90 3.14 3.40 3.52 3.71 3.80 3.83 3.98 3.99 3.75 3.44 3.45 3.88 4.32 4.23 3.95 3.52 3.49 3.53 3.62 3.58 3.47 2.64 2.58
1.82 2.19 2.37 2.30 2.04 2.01 2.09 2.20 2.11 2.10 2.17 2.31 2.40 2.46 2.52 2.65 2.67 2.71 2.84 3.01 3.29 3.49 3.55 3.54 3.55 3.57 3.55 3.51 3.44 3.26 3.50 3.95 4.32 4.51 4.52 3.31 3.10 3.65 3.78 3.60 3.14 2.68 2.56
1.35 1.64 1.78 1.97 1.90 1.83 1.74 1.86 1.98 1.95 1.96 2.12 2.42 2.61 2.64 2.79 2.80 2.83 3.05 3.22 3.41 3.39 3.41 3.42 3.36 3.26 3.28 3.23 3.16 3.26 3.45 3.91 4.41 4.89 4.34 3.07 2.59 3.25 3.68 3.40 3.01 2.86 2.72
1.26 1.38 1.66 1.67 1.61 1.68 1.68 1.80 1.97 2.01 2.01 2.03 2.28 2.58 2.78 2.98 3.04 3.13 3.27 3.42 3.45 3.32 3.18 3.20 3.18 2.94 3.00 3.06 3.13 3.36 3.53 4.18 4.88 4.72 3.64 3.29 3.07 3.26 3.35 3.38 3.29 3.21 2.98
1.08 1.16 1.36 1.58 1.59 1.66 1.70 1.77 1.79 1.91 2.09 2.17 2.35 2.65 2.83 3.04 3.23 3.43 3.42 3.54 3.46 3.21 3.13 3.11 3.04 2.89 2.93 3.06 3.27 3.36 3.53 4.25 4.53 3.60 3.18 3.11 2.98 3.19 3.20 3.44 3.46 3.37 3.23
0.92 1.08 1.24 1.48 1.58 1.64 1.60 1.68 1.77 1.89 2.17 2.33 2.33 2.46 2.57 2.78 3.16 3.32 3.30 3.33 3.19 3.03 2.96 2.98 3.00 2.88 2.84 2.97 3.30 3.31 3.55 3.97 3.49 2.97 3.07 3.13 2.80 2.75 3.04 3.49 3.61 3.48 3.13
0.93 0.93 1.15 1.41 1.55 1.60 1.58 1.72 1.86 2.11 2.35 2.46 2.33 2.32 2.40 2.64 2.94 3.00 2.97 2.93 2.87 2.93 2.91 2.95 2.95 2.81 2.73 3.00 3.16 3.20 3.46 3.39 2.67 2.48 2.55 2.59 2.51 2.60 3.04 3.40 3.54 3.50 3.18
1.16 1.09 1.17 1.25 1.32 1.47 1.65 1.82 2.10 2.38 2.52 2.47 2.27 2.25 2.45 2.60 2.66 2.65 2.71 2.73 2.80 2.85 2.87 2.86 2.76 2.67 2.67 2.90 2.97 2.98 3.29 3.43 2.74 2.50 2.21 2.43 2.72 2.90 3.32 3.49 3.46 3.51 3.41
1.49 1.43 1.35 1.36 1.40 1.37 1.63 2.00 2.27 2.49 2.60 2.55 2.43 2.49 2.66 2.77 2.68 2.74 2.71 2.79 2.87 3.00 3.08 3.12 3.07 2.92 2.91 2.94 2.79 2.96 3.38 3.19 2.61 2.38 2.37 2.29 2.74 3.06 3.38 3.54 3.54 3.45 3.37
2.04 1.78 1.64 1.50 1.55 1.65 1.74 1.96 2.44 2.71 2.72 2.70 2.88 3.05 3.15 3.08 2.87 3.05 2.85 3.18 3.25 3.34 3.44 3.61 3.53 3.26 3.19 3.10 3.16 3.48 3.31 2.84 2.76 2.66 2.53 2.44 2.72 3.08 3.54 3.65 3.61 3.53 3.32
2.33 1.92 1.78 1.61 1.59 1.67 1.86 2.43 2.83 2.63 2.73 2.97 3.28 3.43 3.63 3.55 3.45 3.01 3.30 3.68 3.96 4.25 4.31 4.39 4.33 3.95 3.43 3.16 3.79 4.24 3.09 2.69 2.70 2.64 2.57 2.61 2.93 3.30 3.57 3.48 3.44 3.43 3.30
2.17 1.96 1.91 1.95 2.04 1.96 2.12 2.58 2.93 2.88 3.04 3.16 3.22 3.41 3.61 3.33 3.22 3.36 3.73 4.08 4.35 4.57 4.59 4.82 4.93 4.32 3.90 3.78 4.04 4.06 3.19 2.90 2.75 2.61 2.82 2.94 3.06 3.34 3.75 3.60 3.47 3.52 3.50
2.67 2.41 2.27 2.33 2.39 2.42 2.39 2.65 2.89 2.80 2.94 3.10 3.20 3.19 3.33 3.50 3.58 3.72 4.14 4.16 4.32 4.49 4.91 4.71 5.11 4.86 4.45 4.16 4.12 3.92 3.31 3.05 2.98 3.07 3.42 3.19 3.02 3.42 3.92 3.90 3.77 3.58 3.45
3.28 3.26 3.03 2.73 2.59 2.69 2.92 2.96 2.87 2.99 3.10 3.15 3.34 3.34 3.30 3.61 3.81 3.93 4.06 4.27 3.98 4.06 4.55 4.74 4.63 4.95 5.01 4.70 4.45 4.14 3.88 3.55 3.31 3.32 3.46 3.46 3.35 3.49 3.89 4.12 4.00 3.90 3.67
3.42 3.58 3.36 3.23 3.06 3.13 3.40 3.55 3.51 3.40 3.68 3.61 3.51 3.41 3.54 3.76 4.12 4.32 4.27 4.37 4.10 3.88 4.13 4.41 4.52 5.28 5.21 5.10 4.60 4.26 4.21 4.14 3.77 3.62 3.57 3.78 3.63 3.43 3.62 4.09 4.26 4.24 4.12
3.74 3.65 3.57 3.55 3.52 3.71 3.82 3.81 3.63 3.57 3.47 3.55 3.64 3.63 3.65 3.62 4.06 4.33 4.54 4.51 4.21 3.96 4.22 4.44 4.70 5.01 4.80 4.71 4.51 4.31 4.21 4.12 3.85 3.73 3.89 4.07 3.80 3.62 3.56 3.81 4.20 4.43 4.55
4.05 4.07 4.06 3.81 3.98 4.20 4.28 4.17 4.02 3.88 3.71 3.52 3.45 3.63 3.69 3.80 4.07 4.36 4.29 4.17 4.26 4.22 4.51 4.74 4.85 4.92 4.84 4.66 4.43 4.06 3.89 3.99 3.61 3.52 3.57 3.65 3.71 3.39 3.64 4.02 4.30 4.40 4.64
4.53 4.79 4.82 4.68 4.58 4.60 4.62 4.52 4.56 4.56 4.35 3.96 3.81 3.85 3.94 3.85 3.86 4.13 4.14 4.26 4.33 4.34 4.45 4.07 4.67 4.73 4.80 4.64 4.02 3.86 3.56 3.58 3.50 3.17 3.17 3.04 3.23 3.36 3.39 3.52 3.89 4.03 4.63
4.67 5.27 5.32 5.18 5.23 5.34 5.33 5.03 5.03 4.81 4.55 4.39 4.38 4.51 4.23 4.01 3.81 4.07 4.09 4.24 4.26 4.39 4.47 4.46 4.73 4.65 4.52 4.46 3.62 3.48 3.40 3.13 3.06 3.08 2.92 2.89 3.04 2.92 3.09 3.39 3.71 3.45 3.97
4.94 5.48 5.79 5.90 5.88 5.68 5.38 5.03 4.83 4.84 4.79 4.49 4.27 4.13 4.01 3.88 3.91 4.31 4.17 4.57 4.44 4.23 4.22 4.32 4.57 4.50 4.26 4.31 4.26 3.74 3.15 2.82 2.86 2.78 2.88 2.99 2.81 2.89 3.25 3.67 3.80 3.61 3.31
4.58 5.07 5.27 5.11 5.14 5.02 4.84 4.77 4.74 5.02 4.70 4.38 4.23 4.09 3.77 3.75 3.84 3.86 4.28 4.22 4.24 4.36 4.30 4.26 4.45 4.30 3.93 4.15 4.44 4.39 3.65 3.44 2.92 2.38 2.69 2.86 2.93 3.20 3.33 3.39 3.78 3.94 3.57
3.55 3.85 4.06 4.29 4.31 4.27 4.31 4.27 4.34 4.58 4.41 4.29 4.18 4.07 3.64 3.46 3.45 3.65 3.83 4.00 4.33 4.17 4.22 4.34 4.23 4.18 3.94 3.93 4.16 4.55 4.10 3.61 3.06 2.51 2.36 2.63 3.03 3.36 3.33 3.39 3.50 3.70 3.78
3.16 3.41 3.49 3.59 3.79 3.91 4.04 3.94 3.79 3.68 3.69 3.70 3.78 3.72 3.68 3.52 3.41 3.45 3.58 3.76 3.96 3.75 3.82 3.54 3.64 3.96 4.15 3.88 4.00 3.97 3.89 3.81 3.69 3.09 2.64 2.61 2.89 3.07 3.25 3.24 3.39 3.59 3.81
2.67 2.96 3.10 3.15 3.34 3.68 3.82 3.76 3.73 3.47 3.42 3.46 3.53 3.58 3.58 3.50 3.40 3.34 3.35 3.42 3.46 3.36 3.44 3.39 3.63 3.61 3.64 3.66 3.77 3.85 3.98 3.98 3.76 3.53 3.14 3.05 2.93 2.65 2.71 2.94 3.17 3.36 3.58
2.40 2.57 2.70 2.83 2.98 3.26 3.43 3.53 3.60 3.51 3.37 3.33 3.32 3.34 3.32 3.33 3.22 3.13 3.07 3.12 3.14 3.14 3.22 3.28 3.43 3.34 3.41 3.56 3.63 3.68 3.89 3.92 3.97 3.93 3.37 3.15 2.90 2.40 2.36 2.36 2.60 2.91 3.36